STARLINK-35502

Last updated on Fri Dec 12 2025 00:02:05 GMT+0000 (Coordinated Universal Time)

1 66435U 25259P 25345.58335648 .00106368 00000+0 25258-2 0 9995 2 66435 43.0001 54.3837 0001069 289.9536 234.0770 15.40609262 6095
UTC large
Height (km)
Speed (km/s)
/
Latitude / Longitude
Inclination (degrees)
Orbital Period (minutes)
Azimuth
Elevation
Range (km)
Doppler Factor

Next 0 passes for location: London (51.5072 / 0.1276)

Sorry there are no passes over London.